RH
29 38 48 60 74 81 80 78 72 67 63 60 58 51 41 30 25 26 26 31 32 28 32 34 30 31 34 36 34 31 23 14 11 11 16 21 24 27 27 27 27 27 26 26 28 31 36 41 42 42 43 38 37 40 46 53 52 56 65 61 61 66
28 37 48 58 67 70 69 68 63 60 61 59 49 37 28 25 29 32 32 41 44 37 40 44 47 52 55 59 58 56 48 34 27 22 19 18 18 22 25 26 24 23 23 27 30 31 40 54 58 56 55 51 49 48 47 51 55 62 66 60 62 68
31 32 39 43 47 50 52 55 58 59 60 51 35 29 32 38 45 48 49 57 57 49 50 56 63 67 67 70 69 68 66 59 54 47 39 32 27 26 27 28 23 22 32 45 50 45 48 60 64 63 60 58 60 63 66 66 65 66 65 63 66 69
40 33 30 30 29 32 38 50 58 60 55 43 34 37 48 56 62 65 63 64 62 59 61 66 70 72 72 74 75 73 73 73 71 67 62 56 52 50 47 45 38 38 52 62 65 63 61 62 62 63 65 65 64 66 71 73 71 70 69 68 70 73
55 48 38 29 24 25 37 54 60 58 53 47 40 37 49 57 59 64 65 66 68 68 69 69 69 71 73 76 78 77 76 79 78 75 76 73 69 68 66 65 59 56 64 68 69 70 68 67 67 69 72 74 73 69 68 70 74 75 72 72 74 77
71 63 52 36 25 29 44 58 60 55 56 61 53 42 56 62 55 58 64 71 77 78 78 76 74 73 74 75 78 79 77 81 83 78 79 80 76 75 76 75 74 71 73 74 74 74 72 73 72 73 76 77 77 74 69 68 70 74 74 75 75 75
72 59 59 44 25 33 49 59 60 56 59 68 67 58 64 64 58 63 69 78 85 85 85 85 81 77 76 75 79 80 75 81 85 82 80 80 77 76 77 74 74 75 75 75 75 75 74 76 76 76 77 76 76 76 74 71 68 69 69 68 69 72
63 42 44 35 25 39 51 59 61 62 66 72 73 67 69 73 76 81 81 81 82 82 83 85 84 80 79 77 79 77 75 81 80 80 81 79 79 78 77 75 73 74 75 75 74 75 77 79 80 78 77 74 75 77 77 76 74 73 70 68 69 73
62 45 35 26 35 48 50 58 66 73 77 80 81 77 81 85 82 81 81 80 80 80 77 80 83 80 81 79 74 72 76 81 76 74 76 75 79 80 79 79 78 78 79 81 81 82 84 82 80 78 77 77 79 80 79 77 77 79 79 77 77 77
63 64 62 49 50 54 54 62 70 79 81 79 84 85 83 75 68 69 72 78 80 77 72 73 79 80 81 78 71 71 77 80 74 75 80 78 79 80 79 77 76 77 77 78 79 81 82 80 79 79 80 81 81 80 80 80 78 81 83 83 82 80
66 74 81 73 67 70 75 75 73 81 82 77 78 78 73 62 62 67 71 80 78 71 68 67 73 78 78 76 74 75 77 76 73 74 79 78 76 76 74 70 71 72 69 67 68 69 69 68 69 73 76 77 75 74 78 79 78 81 84 84 82 80
73 79 81 79 78 83 89 85 81 83 82 77 73 68 63 58 64 73 79 84 79 73 72 66 66 71 75 75 75 77 78 77 76 73 73 75 74 74 74 73 73 73 72 71 70 71 69 66 65 65 66 67 67 70 74 75 76 79 82 81 78 77
79 83 79 79 80 86 92 90 85 80 77 74 71 68 62 62 69 78 82 79 76 73 69 65 63 66 73 76 76 82 86 85 85 81 79 81 81 79 78 77 75 75 76 73 71 71 69 68 68 66 65 65 65 66 69 72 74 75 75 75 74 74
78 81 78 79 79 83 90 89 85 80 77 71 68 72 68 70 76 78 77 72 71 66 57 59 61 61 68 78 82 83 85 86 86 80 77 80 80 76 73 72 71 71 71 67 64 64 64 64 63 64 65 66 67 67 68 69 71 72 73 73 73 71
70 76 77 78 78 82 86 84 83 80 77 71 68 75 73 75 78 74 75 73 68 62 52 52 57 55 61 76 84 84 84 84 81 76 73 75 76 72 68 67 67 67 67 64 62 61 60 58 56 59 63 65 65 63 62 63 65 67 69 69 71 72
60 71 77 79 80 83 84 80 80 77 76 75 72 77 76 76 78 74 75 74 67 61 54 53 56 58 64 76 81 84 85 81 79 79 76 74 74 71 66 66 68 69 69 67 65 64 62 58 57 59 62 64 62 58 58 60 62 63 65 67 71 74
56 70 79 80 78 80 83 81 81 79 78 79 78 79 77 78 81 77 73 70 66 60 56 59 61 62 69 76 77 80 82 78 76 76 75 75 75 71 67 68 70 72 70 68 66 64 61 59 58 59 60 60 58 58 61 60 58 60 62 67 74 80
60 72 81 80 77 82 86 84 84 83 80 82 82 80 79 82 82 75 70 67 63 58 58 64 64 62 67 71 72 75 78 77 74 72 73 75 73 71 71 71 74 76 73 70 67 62 60 61 61 60 59 58 57 60 61 56 57 62 65 68 75 82
70 76 83 79 80 87 88 84 83 82 83 85 83 81 82 83 78 72 67 64 64 62 64 67 64 62 65 67 68 69 73 74 71 71 73 72 72 72 73 73 76 80 79 73 69 65 62 62 62 61 60 57 56 61 61 59 63 65 66 69 75 82
79 82 83 80 83 87 85 82 82 82 85 88 85 82 82 82 78 75 70 68 72 71 69 69 64 62 64 68 70 70 71 72 70 71 73 75 77 77 77 78 79 82 83 80 76 71 66 64 60 58 58 57 60 63 60 60 64 65 66 70 78 88
83 84 82 79 80 81 81 81 83 86 88 88 86 83 83 84 81 78 77 79 80 78 79 78 70 67 70 75 79 78 77 75 74 76 78 81 83 82 82 83 82 81 80 78 76 71 66 63 57 50 47 50 57 60 56 58 65 69 73 79 85 89
83 84 82 80 78 79 82 84 85 89 89 87 89 87 85 89 88 84 85 86 85 88 91 88 83 82 85 86 87 86 85 85 84 84 84 84 84 83 81 80 81 81 79 76 74 66 57 53 52 46 41 38 41 44 48 58 71 79 81 81 83 82
85 85 84 82 82 83 86 89 89 90 90 87 91 91 87 91 96 93 89 89 92 98 99 94 92 93 94 92 88 85 86 87 87 86 84 82 81 80 77 76 76 78 77 72 68 60 50 45 44 42 42 42 41 40 41 49 66 81 82 76 75 74
86 85 85 83 87 89 88 95 96 92 90 88 90 94 94 96 100 99 94 94 99 101 97 92 90 90 90 88 84 82 81 82 81 79 78 78 75 70 68 68 67 63 57 51 48 42 39 37 34 35 41 47 50 51 51 44 45 56 63 61 58 58
85 83 84 83 87 89 88 93 95 94 95 92 90 95 97 97 98 97 96 96 97 95 92 89 86 85 84 83 82 81 80 79 77 75 75 73 65 58 56 53 48 41 33 31 30 28 30 31 31 36 43 52 57 65 71 57 41 37 40 44 42 40
85 82 83 82 83 86 86 84 84 88 93 89 88 95 98 93 88 86 86 86 86 86 86 84 83 82 82 83 83 82 80 78 75 73 71 63 54 48 43 36 31 28 25 24 25 26 27 29 38 50 60 70 77 84 85 73 62 48 31 28 31 28
86 84 83 83 84 85 86 83 81 81 83 81 81 88 91 87 84 82 81 80 78 77 78 79 81 83 86 87 86 83 78 72 70 68 63 53 45 38 31 27 25 24 23 23 23 24 24 26 41 60 75 89 96 99 96 85 79 65 37 20 16 15
88 87 86 87 89 89 87 83 82 80 81 85 87 87 87 86 87 86 84 82 79 76 76 82 85 88 92 92 87 79 68 62 64 61 51 40 33 28 25 24 23 21 20 20 18 18 17 18 28 41 55 69 78 83 85 81 73 59 40 20 6 4
88 87 88 89 89 90 86 80 79 80 86 96 99 95 92 89 87 85 84 84 86 87 87 91 95 95 96 93 85 71 57 54 54 45 36 30 25 22 21 18 16 15 14 12 11 10 10 10 14 21 30 39 47 52 53 53 47 33 24 19 10 5
88 87 88 89 87 87 85 83 83 86 92 97 97 96 92 89 84 82 86 87 89 94 97 96 97 96 90 82 73 58 47 45 40 31 27 25 20 16 14 12 10 8 6 6 5 6 6 7 11 22 37 44 46 50 50 46 44 34 28 32 27 14
90 88 88 90 90 88 88 91 93 95 97 97 95 92 87 82 77 76 81 84 88 95 98 95 92 86 74 65 57 44 36 34 29 25 22 18 14 10 9 7 5 3 3 3 3 5 6 10 19 32 50 59 59 64 63 56 52 45 41 46 38 21
93 92 90 89 90 88 88 91 95 97 97 95 90 83 78 75 73 74 79 86 91 93 93 91 83 69 54 46 40 31 26 24 19 17 14 10 9 6 4 4 3 3 3 2 3 6 6 12 22 35 49 58 62 61 50 41 38 33 34 41 35 24
94 94 93 91 91 89 88 89 90 88 85 82 76 71 72 75 80 87 90 94 94 91 92 85 67 49 36 29 25 20 17 14 11 9 7 6 5 3 3 3 3 3 3 3 3 5 9 14 21 33 46 52 49 38 24 22 24 22 26 30 27 24
94 94 94 93 93 91 89 85 80 77 75 74 72 73 78 84 91 97 95 95 94 93 93 73 44 31 23 17 14 11 9 7 6 5 3 4 3 3 4 3 3 4 2 4 5 5 10 17 21 30 40 37 27 17 13 19 23 23 27 27 28 30
93 93 93 92 91 87 83 78 74 75 76 78 80 82 87 93 99 97 94 96 93 94 90 56 24 17 13 9 8 5 5 4 4 4 3 4 3 3 4 3 4 5 3 5 8 7 9 14 21 29 30 23 17 15 17 24 27 27 30 29 30 33
91 90 89 87 83 79 77 74 74 76 77 81 84 85 90 97 101 98 96 97 88 86 76 38 12 11 7 5 5 3 3 3 3 4 3 3 3 3 5 4 4 3 5 10 10 9 11 15 24 32 29 22 19 19 23 28 29 28 29 29 31 34
87 85 83 80 76 73 73 72 72 73 75 77 80 86 92 96 100 100 98 95 78 62 48 21 7 9 4 4 4 2 3 3 3 3 2 3 3 3 5 5 5 5 9 14 11 8 13 18 25 30 29 27 24 23 26 29 28 27 27 28 30 33
Wind_Speed
16 16 16 16 15 15 14 13 11 10 9 8 7 6 6 7 8 9 9 9 10 10 11 11 11 10 10 9 9 10 9 9 9 8 7 6 5 4 3 3 2 2 1 1 2 3 4 4 4 3 3 2 3 5 5 5 6 8 7 7 6 7
16 16 16 15 15 14 14 13 12 11 10 8 8 7 8 9 9 8 8 8 9 9 10 10 10 9 8 8 8 9 9 8 8 8 8 7 6 5 4 3 2 1 1 1 1 3 5 3 2 2 2 1 1 1 3 4 6 7 7 8 7 8
15 15 15 14 14 14 14 14 12 11 10 10 9 10 11 11 10 8 7 7 7 8 9 8 8 7 7 7 7 7 7 7 7 6 6 7 7 7 6 5 4 3 3 2 2 2 4 1 2 2 3 3 3 3 4 5 5 6 7 9 9 10
14 15 15 14 14 14 15 15 13 12 12 12 11 12 12 11 10 8 7 6 6 6 7 6 6 5 6 6 5 5 5 6 5 5 5 5 5 6 6 6 6 6 5 4 3 2 1 3 3 4 6 7 7 6 6 6 6 6 8 9 10 12
15 15 15 14 15 15 16 16 14 13 13 13 12 12 11 10 10 7 6 6 5 5 5 5 4 4 5 4 3 4 4 4 3 4 4 4 4 4 4 5 6 6 5 3 2 1 1 3 4 5 7 8 8 8 8 8 7 7 8 9 10 12
14 15 16 15 15 15 16 16 14 14 13 12 11 11 10 9 9 7 6 4 3 4 4 4 4 3 3 2 2 2 2 2 1 2 2 3 2 3 3 4 4 4 4 3 2 2 2 3 5 6 8 8 8 8 9 10 10 9 10 11 12 15
13 14 16 15 16 17 17 16 14 13 12 11 10 9 8 8 7 4 3 2 1 1 2 3 4 3 1 1 1 1 1 2 1 2 1 1 1 1 2 3 3 3 2 2 2 3 3 5 8 9 10 10 9 9 10 10 11 11 12 13 15 16
12 13 15 16 17 18 17 16 14 12 10 10 8 7 6 5 4 3 2 3 3 2 1 2 3 3 2 2 2 1 1 2 2 2 1 1 3 2 1 1 0 0 1 3 3 4 5 7 9 11 12 12 11 12 12 12 11 11 12 14 16 18
14 14 14 16 18 18 17 16 14 12 10 9 7 5 5 5 6 7 7 6 5 3 2 2 1 1 2 2 1 1 1 2 2 1 1 2 3 3 3 3 3 3 4 6 6 6 7 8 9 10 12 12 12 13 14 13 11 11 11 13 15 17
16 15 14 16 18 18 17 16 14 12 11 10 9 7 7 8 8 9 9 7 6 6 6 4 2 0 0 1 1 0 2 2 1 1 1 2 2 2 3 4 4 5 6 7 7 7 9 10 10 11 11 12 13 13 13 13 12 11 11 13 14 15
18 18 16 16 17 16 15 13 13 13 12 10 10 9 8 8 8 8 7 6 6 7 8 8 6 3 3 3 2 2 3 3 2 1 2 2 2 2 3 4 4 5 6 6 6 7 9 10 10 11 12 12 13 13 12 13 13 13 13 14 15 16
19 18 18 17 15 15 15 14 13 14 13 11 11 10 9 8 8 8 7 7 6 6 6 8 10 7 4 3 3 2 2 2 2 2 1 2 3 3 4 4 4 5 5 6 7 8 9 9 10 10 11 12 12 12 12 13 14 15 16 16 17 16
21 19 19 18 16 15 16 16 16 15 13 12 11 9 8 7 8 9 8 8 7 5 5 6 8 8 6 3 2 2 2 3 2 3 2 3 4 4 5 5 6 6 6 7 8 8 10 10 10 10 10 11 12 12 12 13 14 15 16 16 16 15
24 22 21 20 19 17 17 17 18 16 14 13 10 8 8 7 8 9 8 7 7 7 6 6 6 8 7 4 4 4 5 5 4 5 5 5 6 6 6 6 7 7 8 9 9 10 11 11 11 11 11 11 12 12 13 14 14 14 14 14 14 14
26 25 24 22 20 18 17 17 17 16 14 13 11 9 9 8 8 8 8 9 8 8 7 6 6 6 6 5 6 6 6 6 6 7 7 7 7 7 7 7 8 8 9 10 11 12 13 12 12 11 11 11 12 12 12 13 13 12 11 11 11 11
26 26 24 21 19 18 16 16 16 16 14 13 12 11 10 9 9 9 9 10 10 9 9 8 7 6 6 6 7 7 7 7 7 8 8 8 9 9 8 9 10 10 10 11 12 13 13 13 12 11 11 10 10 11 11 11 10 9 9 8 7 9
26 25 21 19 18 17 16 16 16 15 15 13 12 11 11 10 10 10 10 10 11 10 11 10 8 7 7 7 8 8 8 8 8 8 9 9 10 10 9 9 10 11 12 12 13 13 13 13 12 11 10 10 10 9 9 9 9 9 7 5 3 5
24 23 19 17 18 17 17 17 16 15 15 13 13 12 12 12 12 12 11 11 12 11 10 9 8 8 8 9 9 9 9 9 10 10 10 11 11 11 11 10 10 11 13 14 14 13 12 11 11 11 10 10 9 8 9 10 9 9 7 5 4 4
23 21 19 18 19 18 17 17 16 16 16 14 14 14 14 14 14 14 13 12 12 11 10 9 8 8 8 10 11 11 11 11 11 11 12 12 12 13 12 12 11 11 13 15 15 14 13 12 12 11 11 10 9 8 9 10 10 10 9 8 8 8
21 21 19 20 20 20 19 18 17 17 17 16 16 16 15 15 15 13 12 11 10 9 9 8 8 8 9 11 12 13 13 13 13 12 13 14 14 14 13 13 13 13 14 15 16 16 16 16 15 14 13 13 10 9 11 11 11 11 11 10 10 10
21 21 20 21 21 20 19 18 19 18 18 18 17 17 16 15 14 12 11 10 9 8 8 8 7 8 10 12 13 13 13 14 15 14 14 15 16 16 15 14 15 15 15 16 18 19 19 19 19 18 16 13 11 11 13 12 11 11 10 10 10 10
21 21 20 20 19 18 18 18 19 18 18 19 17 16 15 14 13 12 11 9 8 8 8 7 8 9 11 13 13 13 13 14 15 15 16 17 17 18 18 17 17 16 17 18 19 20 21 20 20 20 19 16 13 12 14 13 11 10 9 9 9 11
21 21 20 19 18 17 17 17 17 18 18 18 17 16 14 13 12 11 10 9 8 7 7 8 9 11 12 14 14 15 15 16 16 17 18 19 20 20 20 20 19 17 17 18 18 19 20 20 20 20 18 16 14 12 12 13 12 11 10 11 12 13
21 21 20 19 18 17 17 17 17 18 18 17 17 16 14 13 12 11 9 8 9 9 9 10 11 12 13 14 15 17 18 18 19 19 20 20 20 20 19 19 18 16 14 13 14 15 16 17 18 17 13 11 12 13 11 12 13 12 12 14 15 15
21 21 20 19 18 17 18 19 19 19 18 16 16 15 14 13 13 11 10 10 11 11 12 12 12 13 14 15 16 18 19 20 20 20 20 19 17 16 14 13 13 12 10 9 9 9 10 11 13 13 11 9 8 8 10 15 17 15 13 14 16 16
21 21 20 18 17 18 18 18 18 18 18 16 15 14 13 12 11 10 10 10 11 12 13 13 14 15 15 15 15 16 17 18 18 18 17 15 13 11 9 8 8 8 8 8 7 7 7 8 8 9 9 8 5 5 11 16 18 18 19 18 16 15
21 20 19 18 17 18 18 17 17 16 15 14 15 14 13 12 11 10 10 10 12 13 13 13 14 14 14 14 13 13 14 14 14 13 12 11 9 7 5 5 5 5 6 7 6 6 5 5 4 4 4 5 4 6 11 14 14 18 21 21 18 16
21 21 20 19 19 18 18 17 16 15 14 13 12 12 12 11 9 9 10 11 12 11 11 12 13 13 13 12 11 10 11 11 10 8 7 5 4 3 3 3 3 4 5 5 6 5 4 4 2 2 1 1 3 6 8 9 9 11 15 20 22 20
22 22 21 21 20 19 18 17 16 15 15 14 12 10 10 9 8 9 10 10 11 9 9 10 11 12 12 10 9 8 8 8 6 4 3 2 2 2 2 2 2 3 4 5 5 5 5 4 3 3 2 1 1 2 4 5 6 7 8 13 18 21
23 22 21 21 20 20 18 17 16 16 16 15 13 11 10 10 9 10 10 10 10 9 8 10 11 11 10 8 6 5 5 5 4 3 2 2 1 1 1 2 2 3 3 4 4 4 4 5 5 4 4 3 3 4 6 7 8 9 8 9 12 18
23 22 21 21 20 19 18 16 15 15 15 14 13 12 12 11 11 12 12 11 10 10 10 11 11 8 6 4 4 5 4 4 4 3 2 2 1 2 2 2 2 3 3 3 3 4 4 4 4 4 5 6 8 9 10 11 12 11 11 11 12 16
23 22 21 21 20 19 18 17 17 16 16 15 14 13 13 12 12 13 12 11 10 10 10 10 7 4 3 4 5 5 4 4 3 3 3 2 2 2 2 2 2 2 2 3 3 4 4 4 3 3 5 6 8 9 11 12 12 11 12 13 14 16
23 22 21 20 20 19 19 19 18 17 16 15 15 14 13 13 13 12 10 9 9 9 9 6 4 5 6 6 5 5 4 4 4 4 3 2 2 2 2 2 1 1 2 3 4 4 4 3 3 3 5 6 8 10 11 11 11 12 13 14 15 17
23 23 22 21 21 20 19 18 17 17 16 15 15 14 12 12 12 10 8 8 7 8 6 4 6 8 7 6 5 5 5 5 4 4 3 2 2 2 1 1 0 1 2 4 4 3 3 3 3 4 5 7 8 9 10 10 11 12 14 15 17 19
24 23 23 22 21 20 18 18 17 17 16 15 14 13 11 11 10 8 8 7 6 7 6 6 8 8 8 7 6 6 5 5 4 3 3 2 2 2 1 1 0 1 2 4 3 2 2 3 4 5 6 7 8 9 10 11 12 13 14 16 18 19
23 23 23 22 20 19 18 18 17 16 15 14 14 13 11 10 9 8 8 7 6 6 7 9 9 8 8 8 7 6 5 5 4 3 3 3 3 2 2 1 0 1 2 4 3 2 2 3 5 8 8 8 8 10 11 11 11 12 13 15 17 18
23 23 23 21 20 19 18 17 16 15 15 14 13 13 11 10 10 10 9 7 5 8 10 10 9 9 9 8 7 6 5 5 4 3 4 4 3 3 2 1 0 1 2 3 2 2 2 4 6 8 9 9 9 10 11 10 10 12 13 14 16 18
Wind_Direction
168 171 173 171 169 168 166 165 161 157 155 152 148 143 137 127 124 125 122 111 106 111 104 97 93 89 84 83 86 86 87 90 95 106 116 128 136 142 150 154 160 156 138 149 161 152 138 119 115 113 115 139 209 223 230 238 269 284 287 300 321 335
171 175 178 177 174 171 166 166 164 160 155 151 146 140 134 128 128 130 129 115 104 109 108 102 95 91 84 77 79 83 87 93 98 104 111 122 132 137 141 144 166 172 141 172 217 183 165 113 78 78 76 78 79 264 273 273 280 283 285 296 310 324
173 178 182 182 181 178 171 169 167 162 154 149 142 134 130 127 129 128 131 123 111 111 109 105 95 90 83 72 72 78 86 93 101 106 112 119 126 134 136 134 138 135 123 112 88 160 187 288 349 359 355 355 3 352 339 332 315 299 295 297 305 315
177 179 183 185 186 185 176 173 169 164 158 151 143 137 136 134 134 131 130 127 119 112 103 98 92 92 82 73 75 78 87 93 102 113 120 123 127 136 140 139 141 140 133 119 96 106 222 297 325 344 348 344 339 330 324 326 326 319 310 305 308 313
180 182 183 185 188 188 179 174 170 166 161 155 154 152 150 147 145 139 133 123 106 88 77 73 69 78 73 77 86 77 87 95 100 111 124 129 131 138 140 140 142 146 146 145 150 174 275 306 325 338 343 343 339 327 312 307 312 313 307 309 311 310
180 186 185 184 188 189 180 172 169 166 161 159 167 173 169 160 155 145 124 94 64 52 41 36 26 32 59 78 80 60 65 65 71 82 116 125 118 137 147 152 149 145 151 165 195 236 270 302 313 322 327 330 333 327 312 301 300 300 300 307 308 305
176 184 184 183 187 187 179 170 167 163 161 165 173 186 187 168 157 144 106 63 31 60 29 11 0 354 4 31 27 26 21 348 346 34 72 76 26 80 143 169 164 153 170 204 242 258 279 310 310 311 313 316 323 323 316 308 303 300 298 299 298 298
174 176 176 177 180 182 177 168 166 162 161 167 174 186 183 170 182 213 223 232 216 179 90 31 356 341 334 356 357 344 359 325 320 22 38 1 339 341 355 307 187 208 273 274 273 279 293 306 301 299 304 308 314 314 311 309 307 306 300 295 293 294
172 166 164 167 170 175 173 167 166 167 167 169 175 180 174 188 217 220 217 215 194 162 118 79 12 323 327 350 353 324 324 306 320 354 351 341 331 329 325 312 310 295 291 290 288 290 290 290 284 283 289 294 299 302 301 297 298 305 303 299 297 296
172 162 160 163 165 168 169 167 168 175 178 176 184 192 190 196 208 210 208 204 183 162 151 140 138 238 245 263 259 223 261 261 285 308 300 316 313 311 290 275 280 279 280 282 282 283 280 279 275 273 276 282 288 291 290 287 289 295 297 299 301 300
177 169 170 170 166 166 167 172 178 182 184 186 196 202 202 201 207 216 210 203 196 179 167 157 150 152 179 210 233 215 230 241 233 214 233 270 272 270 259 254 262 271 279 283 285 283 282 283 280 275 273 278 284 286 284 281 284 289 294 298 300 300
183 177 179 179 175 175 178 184 190 192 188 191 202 204 206 208 207 222 221 204 201 191 177 163 152 149 172 206 217 215 234 245 258 256 242 268 274 270 266 267 268 273 283 288 289 286 287 291 289 285 279 278 280 282 284 282 286 291 296 300 302 302
184 182 186 186 187 189 192 197 201 202 193 192 202 200 204 209 208 219 219 207 201 187 175 167 153 145 162 196 205 204 228 226 247 272 268 265 268 266 265 273 277 278 283 284 286 286 288 292 290 290 289 289 287 287 288 287 291 295 299 302 304 306
181 184 189 191 196 198 200 204 205 206 196 194 203 201 205 210 209 209 202 196 201 197 180 167 156 149 159 181 207 210 218 222 236 256 257 258 262 265 265 272 279 280 282 283 285 285 284 284 285 287 290 293 293 293 292 292 294 298 302 305 307 309
182 185 187 191 197 196 197 199 201 203 195 196 203 203 208 207 201 195 187 185 191 194 180 176 178 167 166 188 221 228 231 241 254 259 260 263 266 269 271 277 282 284 287 288 286 282 280 283 285 286 288 290 291 292 296 298 298 298 301 306 312 317
182 184 187 192 194 190 192 194 197 197 191 194 197 198 202 199 193 188 186 185 183 182 180 191 193 176 178 205 229 240 247 251 258 264 266 269 272 274 278 283 287 289 290 289 284 280 281 285 287 286 285 286 288 295 303 304 302 299 300 308 325 335
182 184 189 193 192 191 195 196 195 191 187 187 185 189 193 191 188 185 186 183 181 184 187 192 189 179 195 219 234 243 247 246 252 263 270 273 275 277 280 281 285 288 288 286 283 281 281 282 283 284 283 286 292 300 303 300 297 295 291 293 321 337
186 188 191 192 190 191 194 193 190 184 181 179 178 183 185 184 184 184 186 184 185 191 192 190 189 194 211 228 240 246 249 252 256 263 269 273 276 277 278 276 277 280 281 282 282 283 284 282 281 281 284 288 295 301 296 290 286 281 277 268 268 284
190 192 191 188 187 188 188 185 181 177 176 175 177 180 181 183 184 186 187 188 191 191 194 198 202 212 226 238 247 251 255 258 260 263 268 272 273 275 275 274 272 273 276 280 283 286 289 288 286 286 287 290 293 293 287 283 277 272 270 264 262 264
191 190 187 185 185 186 184 181 177 175 174 175 178 179 181 183 184 186 187 188 192 195 204 212 217 227 238 246 252 257 261 264 265 268 272 274 274 274 274 272 271 270 273 279 283 288 290 291 291 289 287 289 290 285 278 275 271 271 270 263 261 264
188 187 186 184 184 183 183 181 177 175 174 176 179 180 179 179 182 185 186 192 200 206 214 221 233 243 246 251 254 259 265 268 270 272 272 273 272 273 273 271 270 271 274 277 282 286 288 290 291 289 286 281 273 270 272 270 262 260 262 259 260 264
186 186 185 183 182 180 181 181 178 177 177 176 176 179 178 177 183 188 193 203 211 213 216 225 242 249 253 256 258 263 266 268 270 272 272 271 272 273 274 273 272 275 278 280 283 286 289 290 291 292 294 289 275 264 263 260 253 248 250 255 260 266
186 185 183 182 182 179 178 181 183 181 180 176 172 177 182 184 191 200 207 213 216 217 222 230 239 244 251 257 261 266 267 268 268 270 271 271 273 275 275 276 276 278 280 281 284 287 291 292 291 294 298 299 294 286 270 252 237 235 255 269 271 276
185 183 182 182 181 179 177 179 185 184 182 179 176 180 188 192 201 213 219 218 217 223 231 237 241 247 253 259 265 268 269 271 271 272 274 274 276 277 277 278 280 282 282 284 286 289 292 294 295 297 301 302 300 302 294 272 259 254 265 277 281 288
185 182 181 181 182 184 183 181 183 183 181 180 181 187 194 198 203 211 217 219 223 230 238 245 251 256 261 265 267 269 270 272 274 276 276 276 278 279 281 283 284 287 291 295 300 301 302 303 303 305 311 314 308 309 305 298 296 287 283 292 297 300
184 181 180 182 184 187 190 190 191 188 184 185 188 192 197 201 201 205 214 223 232 240 245 253 259 264 268 269 270 271 269 270 271 272 273 276 281 283 286 289 290 295 301 309 320 325 326 324 317 314 321 329 331 319 305 304 307 302 299 303 306 308
184 182 182 182 184 188 192 195 198 198 195 196 198 196 198 201 201 207 221 235 245 249 252 257 261 265 268 272 276 275 270 266 264 265 270 277 281 282 287 294 298 302 305 313 324 338 355 358 339 330 333 322 302 291 296 304 313 313 312 310 310 315
183 183 183 182 183 187 193 197 198 201 200 200 204 205 206 207 209 219 235 250 257 256 257 258 259 262 269 276 279 274 265 258 253 256 265 269 272 285 302 308 309 309 311 317 325 342 13 32 43 65 85 249 257 268 282 296 307 315 315 308 308 315
183 184 184 183 183 186 195 201 202 204 201 198 207 215 218 221 224 233 243 253 261 265 266 267 270 273 279 284 278 265 251 242 239 241 246 256 285 314 334 332 323 318 318 322 332 350 6 16 39 59 76 152 202 265 287 299 304 313 316 310 313 320
185 186 186 186 187 189 195 201 204 207 206 206 212 219 227 233 232 241 248 251 260 268 268 273 281 284 285 283 263 240 222 216 218 225 236 263 306 323 331 328 321 318 323 330 345 2 8 14 26 35 32 24 20 8 356 354 354 353 348 336 327 327
186 188 189 189 190 193 195 199 203 208 213 218 225 232 239 240 239 245 248 250 256 262 268 280 288 285 275 254 211 188 180 191 207 218 232 250 280 303 303 309 317 323 334 351 10 20 25 33 34 32 28 19 13 10 7 7 6 0 355 349 339 333
187 189 194 194 194 197 199 201 205 210 218 226 232 238 240 238 239 242 243 247 253 260 276 289 288 260 202 172 167 166 171 192 211 220 231 245 257 274 286 297 319 337 5 30 41 40 40 49 46 27 18 13 7 2 3 8 3 356 356 352 345 341
189 191 197 199 200 203 206 209 213 219 225 228 232 235 235 234 233 234 240 251 261 272 285 283 235 182 161 155 161 171 186 206 221 229 234 244 246 251 268 281 318 4 51 59 47 41 44 45 37 15 3 357 355 357 4 9 4 359 359 354 349 348
194 196 200 203 207 209 212 215 219 225 228 229 232 234 235 233 229 231 245 258 271 283 280 229 178 165 158 159 172 185 200 214 224 229 224 224 226 221 237 249 353 28 68 69 52 39 38 29 15 4 355 353 359 9 17 15 7 4 3 2 360 356
201 201 203 207 211 213 216 219 223 227 229 230 235 239 234 226 226 236 249 260 274 276 251 193 168 163 163 169 183 191 198 206 211 214 199 183 191 187 197 216 36 33 60 68 61 43 26 9 8 12 12 16 21 26 26 19 13 14 12 8 5 1
205 205 206 207 210 212 216 220 224 229 233 235 239 242 233 221 225 240 251 265 268 240 206 180 168 167 169 175 187 190 192 194 195 195 180 166 170 169 170 177 41 44 63 68 64 46 22 0 7 19 25 31 34 32 29 25 19 17 13 9 6 3
206 206 204 203 207 210 213 218 224 230 237 239 239 238 231 223 224 234 247 257 227 190 180 175 172 172 176 181 186 187 189 189 183 183 177 168 166 162 160 152 124 74 71 67 55 34 19 359 3 16 24 31 33 33 31 27 19 14 11 9 8 5